AMC-4 (GE-4)

Last updated on Mon Feb 27 2023 00:02:44 GMT+0000 (Coordinated Universal Time)

1 25954U 99060A 23057.53243752 -.00000242 00000+0 00000+0 0 9994 2 25954 2.1300 87.2323 0002363 227.3019 198.7302 0.99137435 31450
UTC large
Height (km)
Speed (km/s)
/
Latitude / Longitude
Inclination (degrees)
Orbital Period (minutes)
Azimuth
Elevation
Range (km)
Doppler Factor

Next 0 passes for location: London (51.5072 / 0.1276)

Sorry there are no passes over London.